Date String (YYYY-MM-DD hh:mm:ss) UTC,Instrument flags,absolute air pressure of the measurement (hPa),sample flow rate (lpm),inlet stack bypass flow (lpm),air temperature of the measurement (°C),ambient temperature measured by the external sensor (°C),aerosol sample conditioner tube jacket temperature (°C),OPC LED temperature (°C),internal box temperature (°C),relative humidity of the measurement (%),span deviation,mass concentration of particles derived from Lorenz-Mie calculation of OPC scattering (μg/m³),mass concentration of particles derived from Lorenz-Mie calculation of OPC scattering (μg/m³),mass concentration of particles derived from Lorenz-Mie calculation of OPC scattering (μg/m³)
DateTimeUTC,F1_M11,P_M11,Q1_M11,Q2_M11,T1_M11,T2_M11,T3_M11,T4_M11,T5_M11,U1_M11,ZSPAN_M11,X0_M11,X2_M11,X1_M11
2023-10-07 01:00:00,SystemResetWarning,0840.0,5.00,000.00,028.1,026.7,000.0,036.6,029.6,18.0,0000.0,0011.36,0005.47,0004.87
2023-10-07 01:01:00,SystemResetWarning,0840.0,4.99,000.00,028.1,026.7,000.0,036.6,029.6,18.1,0000.0,0011.41,0005.43,0004.87
2023-10-07 01:02:00,SystemResetWarning,0840.1,4.99,000.00,028.1,026.7,000.0,036.6,029.6,18.1,0000.0,0011.58,0005.41,0004.85
2023-10-07 01:03:00,SystemResetWarning,0840.1,5.00,000.00,028.1,026.7,000.0,036.6,029.6,18.1,0000.0,0011.87,0005.45,0004.86
2023-10-07 01:04:00,SystemResetWarning,0840.1,5.00,000.00,028.1,026.6,000.0,036.6,029.6,18.1,0000.0,0011.96,0005.45,0004.87
2023-10-07 01:05:00,SystemResetWarning,0840.1,5.01,000.00,028.1,026.6,000.0,036.6,029.6,18.1,0000.0,0011.60,0005.41,0004.87
2023-10-07 01:06:00,SystemResetWarning,0840.1,5.01,000.00,028.0,026.6,000.0,036.6,029.6,18.1,0000.0,0011.67,0005.44,0004.88
2023-10-07 01:07:00,SystemResetWarning,0840.1,5.00,000.00,028.0,026.6,000.0,036.6,029.5,18.1,0000.2,0011.79,0005.46,0004.88
2023-10-07 01:08:00,SystemResetWarning,0840.1,4.99,000.00,028.0,026.5,000.0,036.6,029.5,18.1,-000.2,0011.39,0005.47,0004.88
2023-10-07 01:09:00,SystemResetWarning,0840.1,5.00,000.00,028.0,026.5,000.0,036.6,029.5,18.0,-000.7,0011.89,0005.47,0004.88
2023-10-07 01:10:00,SystemResetWarning,0840.1,4.99,000.00,028.0,026.4,000.0,036.5,029.5,18.0,-000.7,0012.29,0005.46,0004.89
2023-10-07 01:11:00,SystemResetWarning,0840.1,5.00,000.00,028.0,026.4,000.0,036.5,029.5,18.0,-000.5,0012.59,0005.46,0004.88
2023-10-07 01:12:00,SystemResetWarning,0840.1,5.01,000.00,027.9,026.4,000.0,036.5,029.4,18.0,-000.0,0012.98,0005.51,0004.89
2023-10-07 01:13:00,SystemResetWarning,0840.1,5.01,000.00,027.9,026.4,000.0,036.5,029.4,18.0,0000.0,0013.23,0005.59,0004.90
2023-10-07 01:14:00,SystemResetWarning,0840.1,5.00,000.00,027.9,026.3,000.0,036.5,029.4,18.1,0000.6,0012.99,0005.63,0004.92
2023-10-07 01:15:00,SystemResetWarning,0840.1,5.01,000.00,027.9,026.3,000.0,036.5,029.4,18.1,0000.9,0012.77,0005.64,0004.94
2023-10-07 01:16:00,SystemResetWarning,0840.1,5.00,000.00,027.9,026.3,000.0,036.5,029.4,18.1,0001.1,0012.81,0005.67,0004.98
2023-10-07 01:17:00,SystemResetWarning,0840.1,4.99,000.00,027.9,026.3,000.0,036.4,029.4,18.1,0000.6,0012.84,0005.69,0005.00
2023-10-07 01:18:00,SystemResetWarning,0840.1,5.00,000.00,027.9,026.3,000.0,036.4,029.4,18.1,0000.0,0013.10,0005.75,0005.03
2023-10-07 01:19:00,SystemResetWarning,0840.1,5.00,000.00,027.9,026.4,000.0,036.4,029.4,18.1,0000.0,0012.80,0005.79,0005.05
2023-10-07 01:20:00,SystemResetWarning,0840.1,5.00,000.00,027.9,026.4,000.0,036.4,029.4,18.1,0000.0,0012.41,0005.84,0005.08
2023-10-07 01:21:00,SystemResetWarning,0840.2,5.00,000.00,027.8,026.4,000.0,036.4,029.4,18.1,0000.0,0012.79,0005.90,0005.10
2023-10-07 01:22:00,SystemResetWarning,0840.2,4.99,000.00,027.8,026.4,000.0,036.4,029.4,18.1,0000.0,0012.74,0005.96,0005.12
2023-10-07 01:23:00,SystemResetWarning,0840.2,5.00,000.00,027.8,026.4,000.0,036.4,029.4,18.1,0000.0,0013.39,0005.95,0005.13
2023-10-07 01:24:00,SystemResetWarning,0840.2,5.01,000.00,027.8,026.4,000.0,036.4,029.4,18.1,0000.0,0013.28,0005.92,0005.15
2023-10-07 01:25:00,SystemResetWarning,0840.2,5.00,000.00,027.8,026.4,000.0,036.4,029.4,18.1,0000.0,0013.59,0005.92,0005.18
2023-10-07 01:26:00,SystemResetWarning,0840.2,5.00,000.00,027.8,026.4,000.0,036.4,029.4,18.1,0000.0,0013.87,0005.95,0005.17
2023-10-07 01:27:00,SystemResetWarning,0840.2,4.99,000.00,027.8,026.4,000.0,036.4,029.4,18.1,0000.0,0013.66,0005.97,0005.18
2023-10-07 01:28:00,SystemResetWarning,0840.2,5.00,000.00,027.8,026.4,000.0,036.3,029.4,18.1,0000.0,0013.63,0006.00,0005.18
2023-10-07 01:29:00,SystemResetWarning,0840.1,5.00,000.00,027.8,026.4,000.0,036.3,029.4,18.1,0000.0,0013.90,0005.99,0005.18
2023-10-07 01:30:00,SystemResetWarning,0840.1,5.00,000.00,027.8,026.4,000.0,036.3,029.3,18.1,0000.0,0014.15,0005.94,0005.17
2023-10-07 01:31:00,SystemResetWarning,0840.2,5.01,000.00,027.8,026.4,000.0,036.3,029.3,18.1,0000.0,0014.05,0005.94,0005.18
2023-10-07 01:32:00,SystemResetWarning,0840.2,5.00,000.00,027.8,026.4,000.0,036.3,029.3,18.1,0000.0,0013.42,0005.95,0005.19
2023-10-07 01:33:00,SystemResetWarning,0840.2,5.00,000.00,027.8,026.4,000.0,036.3,029.3,18.1,0000.0,0013.37,0005.94,0005.21
2023-10-07 01:34:00,SystemResetWarning,0840.2,4.99,000.00,027.8,026.4,000.0,036.3,029.3,18.2,0000.6,0013.17,0005.98,0005.24
2023-10-07 01:35:00,SystemResetWarning,0840.2,5.00,000.00,027.8,026.4,000.0,036.3,029.3,18.2,0001.3,0013.86,0006.05,0005.28
2023-10-07 01:36:00,SystemResetWarning,0840.2,4.99,000.00,027.8,026.4,000.0,036.3,029.3,18.2,0000.9,0014.18,0006.11,0005.30
2023-10-07 01:37:00,SystemResetWarning,0840.2,5.00,000.00,027.8,026.4,000.0,036.3,029.3,18.2,0000.8,0013.98,0006.14,0005.33
2023-10-07 01:38:00,SystemResetWarning,0840.2,5.00,000.00,027.8,026.4,000.0,036.3,029.3,18.2,0001.4,0014.00,0006.17,0005.36
2023-10-07 01:39:00,SystemResetWarning,0840.2,5.00,000.00,027.8,026.4,000.0,036.3,029.3,18.2,0001.1,0014.07,0006.15,0005.34
2023-10-07 01:40:00,SystemResetWarning,0840.2,5.00,000.00,027.8,026.4,000.0,036.3,029.3,18.2,0000.5,0013.79,0006.18,0005.35
2023-10-07 01:41:00,SystemResetWarning,0840.1,5.00,000.00,027.8,026.4,000.0,036.3,029.3,18.2,0000.6,0013.30,0006.20,0005.38
2023-10-07 01:42:00,SystemResetWarning,0840.2,5.00,000.00,027.8,026.4,000.0,036.3,029.3,18.2,0001.7,0013.29,0006.23,0005.41
2023-10-07 01:43:00,SystemResetWarning,0840.1,5.00,000.00,027.8,026.4,000.0,036.3,029.3,18.2,0001.1,0013.17,0006.21,0005.42
2023-10-07 01:44:00,SystemResetWarning,0840.2,5.00,000.00,027.8,026.4,000.0,036.3,029.3,18.2,0000.1,0012.90,0006.19,0005.41
2023-10-07 01:45:00,SystemResetWarning,0840.2,5.01,000.00,027.7,026.4,000.0,036.3,029.3,18.2,-000.2,0012.30,0006.22,0005.41
2023-10-07 01:46:00,SystemResetWarning,0840.2,5.00,000.00,027.7,026.4,000.0,036.3,029.3,18.2,0000.0,0011.84,0006.21,0005.39
2023-10-07 01:47:00,SystemResetWarning,0840.2,5.00,000.00,027.7,026.4,000.0,036.3,029.3,18.2,0000.0,0011.35,0006.15,0005.37
2023-10-07 01:48:00,SystemResetWarning,0840.2,5.00,000.00,027.7,026.4,000.0,036.3,029.3,18.2,0000.0,0011.70,0006.12,0005.35
2023-10-07 01:49:00,SystemResetWarning,0840.2,5.00,000.00,027.7,026.4,000.0,036.3,029.3,18.2,0000.0,0011.74,0006.10,0005.34
2023-10-07 01:50:00,SystemResetWarning,0840.2,5.00,000.00,027.7,026.4,000.0,036.2,029.3,18.2,0000.0,0011.96,0006.09,0005.35
2023-10-07 01:51:00,SystemResetWarning,0840.2,5.00,000.00,027.7,026.4,000.0,036.2,029.3,18.2,-000.5,0012.39,0006.08,0005.35
2023-10-07 01:52:00,SystemResetWarning,0840.1,5.01,000.00,027.7,026.4,000.0,036.2,029.3,18.2,-000.2,0012.04,0006.09,0005.34
2023-10-07 01:53:00,SystemResetWarning,0840.2,5.00,000.00,027.7,026.4,000.0,036.2,029.3,18.2,-000.9,0012.36,0006.12,0005.34
2023-10-07 01:54:00,SystemResetWarning,0840.2,5.00,000.00,027.8,026.4,000.0,036.2,029.4,18.2,-000.5,0013.15,0006.17,0005.35
2023-10-07 01:55:00,SystemResetWarning,0840.2,5.00,000.00,027.8,026.4,000.0,036.2,029.4,18.1,-000.4,0013.99,0006.18,0005.36
2023-10-07 01:56:00,SystemResetWarning,0840.2,5.00,000.00,027.8,026.5,000.0,036.2,029.4,18.1,-000.3,0013.97,0006.14,0005.37
2023-10-07 01:57:00,SystemResetWarning,0840.2,5.00,000.00,027.8,026.5,000.0,036.2,029.4,18.1,0000.5,0013.81,0006.09,0005.37
2023-10-07 01:58:00,SystemResetWarning,0840.2,5.00,000.00,027.8,026.5,000.0,036.2,029.4,18.1,0000.8,0013.66,0006.12,0005.38
2023-10-07 01:59:00,SystemResetWarning,0840.2,5.00,000.00,027.8,026.5,000.0,036.2,029.4,18.1,0001.4,0014.01,0006.17,0005.40
